When you browse on this site, cookies collect data to enhance your experience and personalize the content and advertising you see.
Visit our Privacy Policy to learn more. By continuing to use the site, you agree to this use of cookies and data.
  • In Romania
  • List of Countries
  • For 7 days
  • Water Temperature
  • Satellite Maps
  • Weather Map
  • Weather Widgets
  • user-avatar
    Login

    Hourly Weather Guruvayur

    Today, 22 February, Friday

    Time Temperature Precipitation Wind Pressure Humidity
    00:00 +27°C° 0 mm 3 mps 760 mmHg 62%
    01:00 +27°C° 0 mm 3 mps 759 mmHg 55%
    02:00 +27°C° 0 mm 3 mps 759 mmHg 49%
    03:00 +27°C° 0 mm 4 mps 759 mmHg 48%
    04:00 +27°C° 0 mm 5 mps 759 mmHg 47%
    05:00 +27°C° 0 mm 5 mps 759 mmHg 47%
    06:00 +27°C° 0 mm 5 mps 760 mmHg 45%
    07:00 +28°C° 0 mm 5 mps 760 mmHg 43%
    08:00 +29°C° 0 mm 5 mps 760 mmHg 41%
    09:00 +32°C° 0 mm 5 mps 760 mmHg 34%
    10:00 +35°C° 0 mm 5 mps 760 mmHg 27%
    11:00 +37°C° 0 mm 4 mps 760 mmHg 19%
    12:00 +38°C° 0 mm 4 mps 759 mmHg 18%
    13:00 +40°C° 0 mm 4 mps 758 mmHg 17%
    14:00 +41°C° 0 mm 4 mps 757 mmHg 16%
    15:00 +40°C° 0 mm 4 mps 756 mmHg 17%
    16:00 +38°C° 0 mm 4 mps 756 mmHg 19%
    17:00 +38°C° 0 mm 3 mps 756 mmHg 20%
    18:00 +36°C° 0 mm 3 mps 756 mmHg 21%
    19:00 +34°C° 0 mm 3 mps 757 mmHg 22%
    20:00 +32°C° 0 mm 2 mps 758 mmHg 23%
    21:00 +31°C° 0 mm 3 mps 758 mmHg 26%
    22:00 +30°C° 0 mm 3 mps 758 mmHg 28%
    23:00 +29°C° 0 mm 3 mps 759 mmHg 30%

    Tomorrow, 23 February, Saturday

    Time Temperature Precipitation Wind Pressure Humidity
    00:00 +28°C° 0 mm 4 mps 758 mmHg 31%
    01:00 +28°C° 0 mm 4 mps 758 mmHg 31%
    02:00 +27°C° 0 mm 5 mps 758 mmHg 32%
    03:00 +26°C° 0 mm 5 mps 757 mmHg 33%
    04:00 +26°C° 0 mm 5 mps 757 mmHg 34%
    05:00 +25°C° 0 mm 4 mps 757 mmHg 34%
    06:00 +26°C° 0 mm 4 mps 758 mmHg 33%
    07:00 +27°C° 0 mm 4 mps 758 mmHg 32%
    08:00 +28°C° 0 mm 4 mps 759 mmHg 31%
    09:00 +32°C° 0 mm 4 mps 758 mmHg 26%
    10:00 +36°C° 0 mm 4 mps 758 mmHg 22%
    11:00 +39°C° 0 mm 3 mps 758 mmHg 17%
    12:00 +40°C° 0 mm 3 mps 757 mmHg 18%
    13:00 +40°C° 0 mm 3 mps 756 mmHg 18%
    14:00 +42°C° 0 mm 3 mps 755 mmHg 18%
    15:00 +40°C° 0 mm 3 mps 755 mmHg 20%
    16:00 +39°C° 0 mm 3 mps 755 mmHg 21%
    17:00 +38°C° 0 mm 3 mps 754 mmHg 22%
    18:00 +35°C° 0 mm 3 mps 755 mmHg 33%
    19:00 +31°C° 0 mm 2 mps 756 mmHg 45%
    20:00 +28°C° 0 mm 2 mps 757 mmHg 56%
    21:00 +28°C° 0 mm 1 mps 757 mmHg 62%
    22:00 +27°C° 0 mm 1 mps 758 mmHg 67%
    23:00 +26°C° 0 mm 1 mps 758 mmHg 73%

    Day after tomorrow, 24 February, Sunday

    Time Temperature Precipitation Wind Pressure Humidity
    00:00 +26°C° 0 mm 1 mps 758 mmHg 73%
    01:00 +25°C° 0 mm 1 mps 757 mmHg 74%
    02:00 +25°C° 0 mm 1 mps 757 mmHg 75%
    03:00 +24°C° 0 mm 1 mps 757 mmHg 73%
    04:00 +24°C° 0 mm 2 mps 757 mmHg 71%
    05:00 +23°C° 0 mm 2 mps 757 mmHg 69%
    06:00 +25°C° 0 mm 2 mps 757 mmHg 61%
    07:00 +26°C° 0 mm 2 mps 758 mmHg 53%
    08:00 +28°C° 0 mm 2 mps 758 mmHg 44%
    09:00 +31°C° 0 mm 2 mps 758 mmHg 37%
    10:00 +35°C° 0 mm 2 mps 758 mmHg 29%
    11:00 +39°C° 0 mm 2 mps 758 mmHg 22%
    12:00 +40°C° 0 mm 3 mps 757 mmHg 21%
    13:00 +40°C° 0 mm 3 mps 756 mmHg 21%
    14:00 +42°C° 0 mm 4 mps 755 mmHg 20%
    15:00 +41°C° 0 mm 4 mps 755 mmHg 25%
    16:00 +38°C° 0 mm 4 mps 754 mmHg 31%
    17:00 +36°C° 0 mm 4 mps 754 mmHg 37%
    18:00 +34°C° 0 mm 3 mps 755 mmHg 49%
    19:00 +31°C° 0 mm 3 mps 756 mmHg 61%
    20:00 +28°C° 0 mm 3 mps 757 mmHg 73%
    21:00 +28°C° 0 mm 2 mps 758 mmHg 77%
    22:00 +27°C° 0 mm 1 mps 758 mmHg 80%
    23:00 +25°C° 0 mm 0 mps 759 mmHg 84%

    25 February, Monday

    Time Temperature Precipitation Wind Pressure Humidity
    00:00 +26°C° 0 mm 1 mps 758 mmHg 86%
    01:00 +26°C° 0 mm 1 mps 758 mmHg 88%
    02:00 +26°C° 0 mm 1 mps 757 mmHg 90%
    03:00 +25°C° 0 mm 1 mps 757 mmHg 90%
    04:00 +25°C° 0 mm 1 mps 757 mmHg 89%
    05:00 +25°C° 0 mm 1 mps 757 mmHg 89%
    06:00 +26°C° 0 mm 1 mps 758 mmHg 82%
    07:00 +28°C° 0 mm 1 mps 758 mmHg 74%
    08:00 +29°C° 0 mm 1 mps 759 mmHg 67%
    09:00 +32°C° 0 mm 1 mps 759 mmHg 57%
    10:00 +35°C° 0 mm 1 mps 759 mmHg 47%
    11:00 +39°C° 0 mm 1 mps 758 mmHg 37%
    12:00 +38°C° 0 mm 2 mps 757 mmHg 37%
    13:00 +38°C° 0 mm 3 mps 756 mmHg 37%
    14:00 +38°C° 0 mm 4 mps 755 mmHg 38%
    15:00 +37°C° 0 mm 4 mps 755 mmHg 43%
    16:00 +35°C° 0 mm 5 mps 755 mmHg 49%
    17:00 +34°C° 0 mm 5 mps 755 mmHg 55%
    18:00 +32°C° 0 mm 4 mps 756 mmHg 62%
    19:00 +30°C° 0 mm 3 mps 757 mmHg 69%
    20:00 +28°C° 0 mm 2 mps 758 mmHg 76%
    21:00 +28°C° 0 mm 2 mps 758 mmHg 78%
    22:00 +27°C° 0 mm 2 mps 758 mmHg 80%
    23:00 +27°C° 0 mm 1 mps 758 mmHg 83%

    26 February, Tuesday

    Time Temperature Precipitation Wind Pressure Humidity
    00:00 +27°C° 0 mm 1 mps 758 mmHg 85%
    01:00 +26°C° 0 mm 1 mps 757 mmHg 87%
    02:00 +26°C° 0 mm 1 mps 757 mmHg 89%
    03:00 +26°C° 0 mm 1 mps 757 mmHg 91%
    04:00 +25°C° 0 mm 1 mps 757 mmHg 93%
    05:00 +25°C° 0 mm 1 mps 757 mmHg 95%
    06:00 +26°C° 0 mm 1 mps 757 mmHg 88%
    07:00 +28°C° 0 mm 1 mps 758 mmHg 81%
    08:00 +29°C° 0 mm 1 mps 759 mmHg 75%
    09:00 +31°C° 0 mm 1 mps 759 mmHg 64%
    10:00 +35°C° 0 mm 2 mps 758 mmHg 54%
    11:00 +37°C° 0 mm 2 mps 758 mmHg 43%
    12:00 +37°C° 0 mm 3 mps 757 mmHg 44%
    13:00 +37°C° 0 mm 3 mps 756 mmHg 44%
    14:00 +37°C° 0 mm 4 mps 755 mmHg 45%
    15:00 +36°C° 0 mm 4 mps 755 mmHg 50%
    16:00 +34°C° 0 mm 4 mps 755 mmHg 55%
    17:00 +33°C° 0 mm 4 mps 755 mmHg 60%
    18:00 +32°C° 0 mm 4 mps 756 mmHg 66%
    19:00 +29°C° 0 mm 3 mps 756 mmHg 72%
    20:00 +28°C° 0 mm 3 mps 757 mmHg 78%
    21:00 +28°C° 0 mm 2 mps 757 mmHg 80%
    22:00 +27°C° 0 mm 2 mps 757 mmHg 82%
    23:00 +27°C° 0 mm 2 mps 757 mmHg 83%

    27 February, Wednesday

    Time Temperature Precipitation Wind Pressure Humidity
    00:00 +27°C° 0 mm 2 mps 757 mmHg 85%
    01:00 +26°C° 0 mm 2 mps 756 mmHg 86%
    02:00 +26°C° 0 mm 2 mps 756 mmHg 88%
    03:00 +26°C° 0 mm 2 mps 756 mmHg 90%
    04:00 +25°C° 0 mm 1 mps 756 mmHg 91%
    05:00 +25°C° 0 mm 1 mps 756 mmHg 93%
    06:00 +26°C° 0 mm 1 mps 757 mmHg 86%
    07:00 +28°C° 0 mm 1 mps 758 mmHg 80%
    08:00 +29°C° 0 mm 1 mps 758 mmHg 73%
    09:00 +31°C° 0 mm 1 mps 758 mmHg 62%
    10:00 +34°C° 0 mm 2 mps 758 mmHg 51%
    11:00 +37°C° 0 mm 2 mps 758 mmHg 39%
    12:00 +37°C° 0 mm 3 mps 757 mmHg 39%
    13:00 +37°C° 0 mm 4 mps 756 mmHg 39%
    14:00 +37°C° 0 mm 5 mps 755 mmHg 39%
    15:00 +36°C° 0 mm 5 mps 755 mmHg 45%
    16:00 +34°C° 0 mm 5 mps 755 mmHg 51%
    17:00 +33°C° 0 mm 5 mps 755 mmHg 56%
    18:00 +30°C° 0 mm 4 mps 756 mmHg 63%
    19:00 +29°C° 0 mm 4 mps 757 mmHg 69%
    20:00 +28°C° 0 mm 3 mps 757 mmHg 76%
    21:00 +27°C° 0 mm 3 mps 757 mmHg 78%
    22:00 +27°C° 0 mm 3 mps 757 mmHg 80%
    23:00 +26°C° 0 mm 3 mps 757 mmHg 82%
    Show more